[keps] orb10217.2l.amsat
Ray Hoad
ray.hoad at mypbmail.com
Thu Aug 5 19:27:18 PDT 2010
SB KEPS @ AMSAT $ORB10217.N
2Line Orbital Elements 10217.AMSAT
HR AMSAT ORBITAL ELEMENTS FOR AMATEUR SATELLITES IN NASA FORMAT
FROM WA5QGD FORT WORTH,TX August 5, 2010
Send Subscribe/unsubscribe to KEPS at http://www.amsat.org/mailman/listinfo/keps
BID: ORB10217.N
DECODE 2-LINE ELSETS WITH THE FOLLOWING KEY:
1 AAAAAU 00 0 0 BBBBB.BBBBBBBB .CCCCCCCC 00000-0 00000-0 0 DDDZ
2 AAAAA EEE.EEEE FFF.FFFF GGGGGGG HHH.HHHH III.IIII JJ.JJJJJJJJKKKKKZ
KEY: A-CATALOGNUM B-EPOCHTIME C-DECAY D-ELSETNUM E-INCLINATION F-RAAN
G-ECCENTRICITY H-ARGPERIGEE I-MNANOM J-MNMOTION K-ORBITNUM Z-CHECKSUM
TO ALL RADIO AMATEURS BT
AO-07
1 07530U 74089B 10216.56525575 -.00000027 00000-0 10000-3 0 08468
2 07530 101.4002 230.5540 0011670 178.3849 181.7261 12.53579141634512
FO-29
1 24278U 96046B 10216.91259478 -.00000060 00000-0 -23944-4 0 03766
2 24278 098.5150 039.3056 0351071 357.6125 002.3329 13.52951218689699
SO-33
1 25509U 98061B 10216.41595598 .00000133 00000-0 15188-4 0 07678
2 25509 031.4334 235.7808 0353431 351.5213 007.9564 14.28319169614953
RS-22
1 27939U 03042A 10217.62626113 .00000135 00000-0 34806-4 0 4255
2 27939 097.8863 080.9992 0012439 264.2348 095.7437 14.63439290366188
VO-52
1 28650U 05017B 10216.82123942 -.00000129 00000-0 -97887-5 0 05696
2 28650 097.6890 268.3498 0028173 116.3817 244.0291 14.81780459283899
SO-67
1 35870U 09049F 10217.73005558 .00000744 00000-0 36585-4 0 9816
2 35870 097.3279 265.5463 0001595 308.3293 188.1917 15.20983042 48989
HO-68
1 36122U 09072B 10217.65342175 -.00000045 00000-0 00000 0 0 5519
2 36122 100.4654 277.5742 0007191 222.8589 137.1969 13.16281501 30720
UO-11
1 14781U 84021B 10216.30089369 -.00000127 00000-0 -97287-5 0 03066
2 14781 098.0525 268.1796 0010250 084.3580 275.8803 14.79819829418922
AO-16
1 20439U 90005D 10217.73326424 .00000029 00000-0 26233-4 0 9625
2 20439 098.3360 173.6992 0011587 024.1339 336.0386 14.31869072 72470
LO-19
1 20442U 90005G 10217.44356410 .00000029 00000-0 26230-4 0 8711
2 20442 098.2976 179.0229 0012298 019.5319 340.6321 14.32099479 72607
AO-27
1 22825U 93061C 10217.71618768 .00000085 00000-0 50101-4 0 5948
2 22825 098.4879 164.3922 0009099 119.6257 240.5821 14.29304075879125
IO-26
1 22826U 93061D 10217.77277736 .00000013 00000-0 21596-4 0 3317
2 22826 098.4819 165.0300 0009742 115.1056 245.1144 14.29560499879247
GO-32
1 25397U 98043D 10217.73648260 -.00000088 00000-0 -21090-4 0 2512
2 25397 098.3140 222.4598 0002244 109.5153 250.6237 14.23181688627092
NO-44
1 26931U 01043C 10216.68660248 .00000043 00000-0 49101-4 0 05261
2 26931 067.0516 079.0203 0005130 266.3408 093.7106 14.29605973461684
SO-50
1 27607U 02058C 10216.53118009 .00000084 00000-0 34923-4 0 2365
2 27607 064.5561 209.6751 0037120 054.5151 305.9418 14.71559863409490
CO-55
1 27844U 03031E 10217.60508944 .00000040 00000-0 38858-4 0 9056
2 27844 098.7102 225.8712 0010747 032.4754 327.7080 14.20721119368108
CO-57
1 27848U 03031J 10217.57147341 .00000022 00000-0 30516-4 0 8542
2 27848 098.7148 224.9406 0010648 036.6670 323.5238 14.20512728368052
AO-51
1 28375U 04025K 10216.48706809 .00000010 00000-0 15813-4 0 7405
2 28375 098.0649 207.2392 0083952 311.6525 047.7502 14.40692830320465
GENESAT1
1 29655U 06058C 10216.61700559 .10637092 69904-5 33715-3 0 2265
2 29655 040.0059 067.3006 0005079 297.8744 064.7087 16.44862838207776
CP3
1 31129U 07012N 10216.58259394 .00000214 00000-0 59437-4 0 06447
2 31129 097.9355 253.5554 0104617 084.5710 276.7354 14.52285712174888
CO-65
1 32785U 08021C 10216.18010072 -.00000089 00000-0 -45826-5 0 07509
2 32785 097.8920 280.4359 0015917 125.5392 234.7298 14.81688015122599
KKS-1
1 33493U 09002B 10217.70932382 .00000451 00000-0 65089-4 0 7291
2 33493 098.0903 337.6372 0019626 345.0086 015.0548 14.81052037 82817
SOHLA-1
1 33496U 09002E 10216.70989730 .00000071 00000-0 20238-4 0 01718
2 33496 098.0609 325.1643 0007598 053.6939 306.4965 14.69506295082007
TISAT-1
1 36799U 10035E 10216.72771421 .00000258 00000-0 41180-4 0 00448
2 36799 098.1430 276.2140 0014657 215.5100 144.5183 14.80132133003498
STUDSAT
1 36801U 10035G 10216.73697962 .00000884 00000-0 12519-3 0 00594
2 36801 098.1461 276.2007 0013194 202.8181 157.2444 14.79564456003497
NOAA-10
1 16969U 86073A 10216.72972452 -.00000033 00000-0 44669-5 0 01581
2 16969 098.6543 245.2363 0013181 070.6544 289.6043 14.27422570242502
NOAA-11
1 19531U 88089A 10216.82113331 -.00000223 00000-0 -92730-4 0 01709
2 19531 098.7688 305.0184 0011933 013.5208 346.6291 14.14930572128013
NOAA-12
1 21263U 91032A 10216.70750616 .00000095 00000-0 58926-4 0 06592
2 21263 098.7653 229.8615 0012948 029.7367 330.4548 14.25646952999317
MET-3/5
1 21655U 91056A 10217.78784836 .00000051 00000-0 10000-3 0 8801
2 21655 082.5566 273.5933 0012503 220.6249 139.3903 13.17025058912205
MET-2/21
1 22782U 93055A 10216.52462894 -.00000027 00000-0 -37605-4 0 08482
2 22782 082.5451 214.0890 0020717 267.2173 092.6617 13.83645350854766
OKEAN-4
1 23317U 94066A 10216.70493698 .00000339 00000-0 38702-4 0 03046
2 23317 082.5423 308.5750 0024023 082.7054 277.6904 14.82843405853647
NOAA-14
1 23455U 94089A 10216.69119177 -.00000020 00000-0 12596-4 0 01509
2 23455 098.8770 297.0941 0010301 096.9595 263.2763 14.13790628804350
NOAA-15
1 25338U 98030A 10216.88880024 .00000018 00000-0 26299-4 0 04748
2 25338 098.6223 202.9477 0009720 295.9037 064.1143 14.24845350635680
RESURS
1 25394U 98043A 10217.80723580 -.00000021 00000-0 86891-5 0 5707
2 25394 098.3041 233.1850 0002579 075.3273 284.8193 14.24206914627410
FENGYUN1
1 25730U 99025A 10216.76304999 .00000589 00000-0 36938-3 0 01052
2 25730 098.7865 180.4543 0022887 125.7046 234.6255 14.08229772578525
OKEAN-0
1 25860U 99039A 10217.77942968 .00000049 00000-0 14901-4 0 649
2 25860 097.8364 188.8033 0000749 052.0657 308.0615 14.73652662594201
NOAA-16
1 26536U 00055A 10216.88804197 .00000244 00000-0 15718-3 0 09510
2 26536 099.1691 235.5022 0010316 196.3854 163.6972 14.12571681508705
NOAA-17
1 27453U 02032A 10216.89453720 .00000012 00000-0 23512-4 0 09479
2 27453 098.4269 265.3684 0011711 000.4182 359.7010 14.24178084421631
NOAA-18
1 28654U 05018A 10216.93247241 -.00000136 00000-0 -50130-4 0 04328
2 28654 098.9512 163.0615 0013401 277.7821 082.1838 14.11375306268317
NOAA-19
1 33591U 09005A 10216.93116871 -.00000161 00000-0 -65414-4 0 06307
2 33591 098.7890 158.0202 0014440 147.3570 212.8489 14.11071569076789
HUBBLE
1 20580U 90037B 10216.58644794 .00000488 00000-0 24548-4 0 6210
2 20580 028.4695 283.8869 0003357 000.6659 359.3930 15.01008823912034
ISS
1 25544U 98067A 10217.91454058 .00015425 00000-0 12214-3 0 6534
2 25544 051.6468 336.1249 0006933 185.3953 273.8915 15.71523797671292
CO-58
1 28895U 05043F 10216.64370311 .00000325 00000-0 77057-4 0 06480
2 28895 098.0085 099.5002 0019039 131.1914 229.0957 14.59916950254050
FALCON
1 30776U 07006E 10216.88311953 .00000790 00000-0 59431-4 0 08962
2 30776 035.4326 108.6325 0001611 277.8894 082.1645 15.03742635187397
MAST
1 31126U 07012K 10217.64609851 .00000098 00000-0 32169-4 0 9300
2 31126 097.9337 257.0929 0095848 072.5485 288.6152 14.53607510175245
CAPE1
1 31130U 07012P 10216.78094540 .00000038 00000-0 19135-4 0 09517
2 31130 097.9357 253.5856 0104568 083.8659 277.4404 14.52204418174716
COMPASS
1 32787U 08021E 10216.17677516 .00000050 00000-0 12958-4 0 07428
2 32787 097.8909 280.2676 0016687 126.6295 233.6441 14.81923144122602
AAUSAT2
1 32788U 08021F 10217.66047847 .00000156 00000-0 26292-4 0 7346
2 32788 097.8910 281.8691 0016528 123.0980 237.1815 14.82069997122832
DO-64
1 32789U 08021G 10216.71912671 .00000301 00000-0 44321-4 0 7512
2 32789 097.8979 281.4700 0016598 124.1737 236.1045 14.82235165122694
CO-66
1 32791U 08021J 10217.69148818 .00000703 00000-0 95722-4 0 7356
2 32791 097.8914 281.7697 0016919 120.2751 240.0156 14.81705097122786
RS-30
1 32953U 08025A 10217.79121224 .00000010 00000-0 00000 0 0 9288
2 32953 082.5031 358.8268 0018752 357.8771 002.2229 12.43006949 99906
TACSAT-3
1 35001U 09028A 10217.65536273 .00004812 00000-0 11407-3 0 3519
2 35001 040.4556 276.8754 0021079 012.1064 348.0254 15.42205169 68271
PHARMSAT
1 35002U 09028B 10217.52820030 .00004455 00000-0 10408-3 0 3314
2 35002 040.4698 275.4657 0024827 015.3268 344.8296 15.42688499 68272
HAWKSAT1
1 35003U 09028C 10216.55710228 .00007996 00000-0 16233-3 0 03601
2 35003 040.4619 274.6266 0022002 025.2724 334.9163 15.46171552068200
CP6
1 35004U 09028D 10217.36500589 .00010633 00000-0 20725-3 0 3512
2 35004 040.4612 268.4205 0019165 035.2567 325.0021 15.47172334 68338
AEROCUB3
1 35005U 09028E 10217.16320054 .00033600 00000-0 49866-3 0 4009
2 35005 040.4688 264.5020 0019027 053.4675 306.7880 15.54262055 68363
CASTOR
1 35694U 09038F 10217.66217299 .00477454 11810-4 27464-3 0 6179
2 35694 051.6298 292.9015 0007628 358.8357 001.2733 16.18241564 59020
METEOR-M
1 35865U 09049A 10217.74627673 .00000176 00000-0 10000-3 0 5323
2 35865 098.7548 271.1826 0001648 214.7898 145.3144 14.21831103 45763
RS-38
1 35869U 09049E 10217.78276443 .00000177 00000-0 10000-3 0 5462
2 35869 098.7534 271.2541 0003902 214.2368 145.8521 14.21986210 45774
/EX
More information about the Keps
mailing list